STARLINK-32544, 61917

Orbit data source: Space-Track

STARLINK-32544, 61917 is a payload satellite owned by SpaceX/Seattle (US) in LEO that was launched on Mon, 11 Nov 2024 UTC via an FALCON 9 launch vehicle from the Air Force Eastern Test Range (AFETR). Payload-class satellites include a variety of spacecraft equipped with specific instruments for various scientific and technological missions. These include communications satellites like Starlink; space stations such as the ISS; scientific satellites like the Hubble; Earth observation satellites from companies like Planet Labs, Umbra, and HawkEye 360; GPS; miniature CubeSats for education and research; and military/defense satellites.

Loading next visibility...
Identifier
61917, 2024-207F
Orbit
LEO
Country
Flag of USUS
Related business
Manufacturer
SpaceX/Seattle
Mission
Operational Commercial Communications
Bus & Motor
STARLINK V2M, Unknown motor
Mass
730 kg wet, ~700 kg dry
Launch date (UTC)
2024-11-11 (1 year ago)
Launch vehicle
FALCON 9
Launch site
Air Force Eastern Test Range (AFETR)
Object type
Payload
Rocket body
Debris
Shape & HBR
Box + 2 Pan, 17.7 m
Radar Cross Section
33.884 m², Large (>1 m²)

Expand to show TLE details & history
Last TLE update: 18 hours ago

TLE from 18 hours ago
0 STARLINK-32544
1 61917U 24207F   26072.87460615  .00030066  00000-0  10970-2 0  9997
2 61917  42.9997 257.9740 0001491 261.0418  99.0265 15.27599208 75367
Epoch: 2026-03-13T20:59Z
TLE epoch observation values (Epoch: 2026-03-13T20:59:25.971Z)
Latitude
-0.00001°
Longitude
131.61191°
Altitude
482.928 km
Speed
7.626 km/s
True Right ascension
17h 11m 53s
True Declination
0° 00' 00"
Sunlit
Object was in daylight at epoch
Visualization orbit readout
Latitude
Unknown
Longitude
Unknown
Altitude
Unknown
Speed
Unknown
Apparent Right ascension
Unknown
Apparent Declination
Unknown
Sunlit
N/A
Visualization observer readout
Local Sidereal Time
19:17:24
Azimuth
Unknown
Elevation
Unknown
Doppler factor
Unknown
Orbital elements
Apogee altitude
485.96 km
Perigee altitude
483.914 km
Semi-major axis
6,863.074 km
Eccentricity
0.00015
Inclination
42.9997°
RAAN
257.974°
Arg. of periapsis
261.0418°
True anomaly
99.04337°
Mean anomaly
99.0265°
Eccentric anomaly
99.03494°
Mean motion
3.81738 °/min
Orbital period
94.31 mins
BSTAR
0.001097
Loading maneuver chart data...
Computing Atmospheric mass density...
Loading historical data...
Loading historical data...
Loading historical data...
Loading historical data...
Loading historical data...
Loading historical data...
Loading historical data...

Documentation

Showing up to 5 results
|